JST250 YSCB-YMML

Flight info

Callsign JST250
Flight time 0h 57m
Altitude 32000
Route CB Q215 TANTA Q29 ML
Aircraft A20N/M-SDE2E3FGHIRWXY/LB1

Departure

Time 2026-05-08 00:39
Airport Canberra Airport (YSCB)

Arrival

Time 2026-05-08 01:36
Airport Melbourne Airport (YMML)
Time Latitude Longitude Altitude Speed Heading
2026-05-08 00:24 -35.30712 149.19152 1885 ft 0 kts 214°
2026-05-08 00:31 -35.30708 149.19156 1877 ft 3 kts 214°
2026-05-08 00:31 -35.30698 149.19164 1879 ft 3 kts 214°
2026-05-08 00:32 -35.30682 149.19168 1881 ft 3 kts 144°
2026-05-08 00:32 -35.30676 149.19162 1882 ft 0 kts 122°
2026-05-08 00:35 -35.30698 149.19197 1884 ft 15 kts 135°
2026-05-08 00:35 -35.30828 149.19238 1884 ft 25 kts 179°
2026-05-08 00:35 -35.30977 149.19238 1883 ft 21 kts 181°
2026-05-08 00:36 -35.31125 149.19238 1881 ft 22 kts 180°
2026-05-08 00:36 -35.31279 149.19237 1878 ft 23 kts 180°
2026-05-08 00:36 -35.31412 149.19241 1876 ft 18 kts 182°
2026-05-08 00:36 -35.31539 149.19238 1877 ft 18 kts 179°
2026-05-08 00:37 -35.31678 149.19238 1876 ft 21 kts 180°
2026-05-08 00:37 -35.31830 149.19239 1880 ft 23 kts 179°
2026-05-08 00:37 -35.31954 149.19263 1879 ft 17 kts 143°
2026-05-08 00:38 -35.31939 149.19438 1882 ft 16 kts
2026-05-08 00:38 -35.31770 149.19443 1877 ft 40 kts 359°
2026-05-08 00:38 -35.31190 149.19442 1880 ft 128 kts
2026-05-08 00:38 -35.30121 149.19510 2240 ft 170 kts 359°
2026-05-08 00:39 -35.28870 149.19587 2929 ft 190 kts 358°
2026-05-08 00:39 -35.27477 149.19623 3665 ft 213 kts 355°
2026-05-08 00:39 -35.25971 149.19589 4621 ft 218 kts 349°
2026-05-08 00:39 -35.24498 149.19224 5646 ft 214 kts 330°
2026-05-08 00:40 -35.23265 149.18251 6440 ft 209 kts 301°
2026-05-08 00:40 -35.22578 149.16803 7244 ft 197 kts 279°
2026-05-08 00:40 -35.22215 149.15215 8172 ft 191 kts 267°
2026-05-08 00:40 -35.22222 149.13634 9108 ft 183 kts 249°
2026-05-08 00:41 -35.22717 149.12245 10017 ft 178 kts 229°
2026-05-08 00:41 -35.23529 149.11095 10851 ft 178 kts 220°
2026-05-08 00:41 -35.24475 149.10120 11711 ft 178 kts 216°
2026-05-08 00:41 -35.25476 149.09247 12567 ft 180 kts 214°
2026-05-08 00:42 -35.26521 149.08393 13438 ft 182 kts 214°
2026-05-08 00:42 -35.27577 149.07534 14274 ft 184 kts 215°
2026-05-08 00:42 -35.28643 149.06645 15038 ft 186 kts 216°
2026-05-08 00:42 -35.29705 149.05736 15811 ft 188 kts 216°
2026-05-08 00:43 -35.30776 149.04799 16576 ft 190 kts 216°
2026-05-08 00:43 -35.31853 149.03843 17271 ft 194 kts 217°
2026-05-08 00:43 -35.32967 149.02846 17870 ft 202 kts 217°
2026-05-08 00:43 -35.34104 149.01825 18606 ft 203 kts 217°
2026-05-08 00:44 -35.35247 149.00798 19279 ft 205 kts 216°
2026-05-08 00:44 -35.36409 148.99757 19943 ft 208 kts 216°
2026-05-08 00:44 -35.37566 148.98722 20618 ft 210 kts 216°
2026-05-08 00:44 -35.38751 148.97662 21282 ft 212 kts 216°
2026-05-08 00:45 -35.39948 148.96591 21910 ft 215 kts 216°
2026-05-08 00:45 -35.41163 148.95503 22550 ft 217 kts 216°
2026-05-08 00:45 -35.42393 148.94402 23184 ft 220 kts 216°
2026-05-08 00:45 -35.43635 148.93289 23793 ft 222 kts 216°
2026-05-08 00:46 -35.44888 148.92166 24317 ft 224 kts 216°
2026-05-08 00:46 -35.46151 148.91034 24839 ft 226 kts 216°
2026-05-08 00:46 -35.47402 148.89912 25348 ft 227 kts 216°
2026-05-08 00:46 -35.48676 148.88768 25870 ft 227 kts 216°
2026-05-08 00:47 -35.49958 148.87617 26365 ft 229 kts 216°
2026-05-08 00:47 -35.51249 148.86455 26877 ft 231 kts 216°
2026-05-08 00:47 -35.52548 148.85284 27370 ft 233 kts 216°
2026-05-08 00:47 -35.53860 148.84104 27846 ft 234 kts 216°
2026-05-08 00:48 -35.55164 148.82933 28298 ft 236 kts 216°
2026-05-08 00:48 -35.56494 148.81738 28771 ft 239 kts 216°
2026-05-08 00:48 -35.57838 148.80530 29255 ft 241 kts 216°
2026-05-08 00:48 -35.59197 148.79311 29710 ft 242 kts 216°
2026-05-08 00:49 -35.60564 148.78083 30139 ft 245 kts 216°
2026-05-08 00:49 -35.61943 148.76840 30495 ft 247 kts 216°
2026-05-08 00:49 -35.63335 148.75582 30807 ft 250 kts 216°
2026-05-08 00:49 -35.64748 148.74306 31070 ft 255 kts 216°
2026-05-08 00:50 -35.66168 148.73023 31371 ft 258 kts 216°
2026-05-08 00:50 -35.67636 148.71696 31740 ft 259 kts 216°
2026-05-08 00:50 -35.69068 148.70401 32064 ft 261 kts 216°
2026-05-08 00:50 -35.70550 148.69062 32177 ft 270 kts 216°
2026-05-08 00:51 -35.72094 148.67668 32181 ft 282 kts 216°
2026-05-08 00:51 -35.73717 148.66201 32181 ft 295 kts 216°
2026-05-08 00:51 -35.75407 148.64673 32171 ft 308 kts 216°
2026-05-08 00:51 -35.77170 148.63078 32171 ft 321 kts 216°
2026-05-08 00:52 -35.79002 148.61418 32171 ft 333 kts 216°
2026-05-08 00:52 -35.80899 148.59697 32170 ft 345 kts 216°
2026-05-08 00:52 -35.82868 148.57911 32203 ft 357 kts 216°
2026-05-08 00:52 -35.84866 148.56097 32196 ft 368 kts 216°
2026-05-08 00:53 -35.86961 148.54190 32187 ft 379 kts 217°
2026-05-08 00:53 -35.90597 148.49309 32179 ft 392 kts 231°
2026-05-08 00:54 -35.93658 148.43721 32193 ft 394 kts 234°
2026-05-08 00:54 -35.96666 148.38055 32190 ft 395 kts 233°
2026-05-08 00:55 -35.99720 148.32482 32216 ft 395 kts 233°
2026-05-08 00:55 -36.02842 148.26897 32204 ft 395 kts 233°
2026-05-08 00:56 -36.05973 148.21315 32216 ft 395 kts 233°
2026-05-08 00:56 -36.09097 148.15732 32221 ft 395 kts 232°
2026-05-08 00:57 -36.12199 148.10180 32234 ft 395 kts 232°
2026-05-08 00:57 -36.15319 148.04601 32236 ft 395 kts 232°
2026-05-08 00:58 -36.18445 147.99007 32233 ft 395 kts 232°
2026-05-08 00:58 -36.21563 147.93418 32227 ft 395 kts 232°
2026-05-08 00:59 -36.24660 147.87857 32231 ft 395 kts 232°
2026-05-08 00:59 -36.27776 147.82252 32236 ft 395 kts 232°
2026-05-08 01:00 -36.30893 147.76636 32232 ft 395 kts 232°
2026-05-08 01:00 -36.33999 147.71025 32231 ft 395 kts 232°
2026-05-08 01:01 -36.37083 147.65438 32231 ft 395 kts 232°
2026-05-08 01:01 -36.40188 147.59801 32227 ft 396 kts 232°
2026-05-08 01:02 -36.43298 147.54147 32228 ft 396 kts 232°
2026-05-08 01:02 -36.46402 147.48493 32229 ft 396 kts 233°
2026-05-08 01:03 -36.49482 147.42873 32224 ft 396 kts 233°
2026-05-08 01:03 -36.52585 147.37203 32212 ft 396 kts 232°
2026-05-08 01:04 -36.55687 147.31526 32222 ft 397 kts 233°
2026-05-08 01:04 -36.58790 147.25838 32222 ft 397 kts 233°
2026-05-08 01:05 -36.61870 147.20182 32212 ft 398 kts 233°
2026-05-08 01:05 -36.64969 147.14482 32215 ft 397 kts 233°
2026-05-08 01:06 -36.68067 147.08775 32218 ft 398 kts 233°
2026-05-08 01:06 -36.71157 147.03071 31813 ft 396 kts 233°
2026-05-08 01:06 -36.72687 147.00241 31255 ft 393 kts 233°
2026-05-08 01:07 -36.74215 146.97413 30715 ft 389 kts 233°
2026-05-08 01:07 -36.75699 146.94663 30154 ft 386 kts 233°
2026-05-08 01:07 -36.77192 146.91895 29540 ft 383 kts 233°
2026-05-08 01:07 -36.78670 146.89155 28926 ft 380 kts 233°
2026-05-08 01:08 -36.80137 146.86431 28357 ft 376 kts 233°
2026-05-08 01:08 -36.81593 146.83727 27764 ft 373 kts 233°
2026-05-08 01:08 -36.83029 146.81058 27223 ft 369 kts 233°
2026-05-08 01:08 -36.84436 146.78443 26693 ft 366 kts 233°
2026-05-08 01:09 -36.85851 146.75809 26117 ft 364 kts 233°
2026-05-08 01:09 -36.87252 146.73200 25593 ft 361 kts 233°
2026-05-08 01:09 -36.88640 146.70612 25070 ft 358 kts 233°
2026-05-08 01:09 -36.90028 146.68024 24554 ft 356 kts 233°
2026-05-08 01:10 -36.91399 146.65464 24027 ft 353 kts 233°
2026-05-08 01:10 -36.92763 146.62915 23463 ft 351 kts 233°
2026-05-08 01:10 -36.94116 146.60385 22869 ft 349 kts 233°
2026-05-08 01:10 -36.95460 146.57870 22270 ft 347 kts 233°
2026-05-08 01:11 -36.96781 146.55396 21727 ft 345 kts 233°
2026-05-08 01:11 -36.98103 146.52916 21172 ft 342 kts 233°
2026-05-08 01:11 -36.99420 146.50444 20611 ft 340 kts 233°
2026-05-08 01:11 -37.00726 146.47992 20069 ft 337 kts 233°
2026-05-08 01:12 -37.02024 146.45555 19501 ft 336 kts 233°
2026-05-08 01:12 -37.03316 146.43125 18946 ft 334 kts 233°
2026-05-08 01:12 -37.04600 146.40711 18380 ft 332 kts 233°
2026-05-08 01:12 -37.05875 146.38311 17822 ft 330 kts 233°
2026-05-08 01:13 -37.07130 146.35943 17377 ft 324 kts 233°
2026-05-08 01:13 -37.08376 146.33594 17229 ft 323 kts 233°
2026-05-08 01:13 -37.09606 146.31275 17211 ft 324 kts 233°
2026-05-08 01:13 -37.10853 146.28924 17224 ft 325 kts 233°
2026-05-08 01:14 -37.12101 146.26568 17229 ft 325 kts 233°
2026-05-08 01:14 -37.13350 146.24208 17225 ft 325 kts 233°
2026-05-08 01:14 -37.14598 146.21848 17226 ft 325 kts 233°
2026-05-08 01:14 -37.15841 146.19495 17099 ft 323 kts 233°
2026-05-08 01:15 -37.17077 146.17151 16546 ft 321 kts 233°
2026-05-08 01:15 -37.18297 146.14835 15998 ft 318 kts 232°
2026-05-08 01:15 -37.19515 146.12522 15471 ft 316 kts 232°
2026-05-08 01:15 -37.20718 146.10240 14927 ft 313 kts 232°
2026-05-08 01:16 -37.21896 146.08003 14428 ft 310 kts 232°
2026-05-08 01:16 -37.23078 146.05754 13919 ft 307 kts 232°
2026-05-08 01:16 -37.24248 146.03526 13348 ft 305 kts 232°
2026-05-08 01:16 -37.25409 146.01312 12787 ft 302 kts 232°
2026-05-08 01:17 -37.26560 145.99114 12259 ft 300 kts 232°
2026-05-08 01:17 -37.27699 145.96940 11757 ft 297 kts 232°
2026-05-08 01:17 -37.28828 145.94789 11261 ft 294 kts 232°
2026-05-08 01:17 -37.29946 145.92659 10751 ft 291 kts 232°
2026-05-08 01:18 -37.31038 145.90575 10366 ft 288 kts 232°
2026-05-08 01:18 -37.32136 145.88478 10245 ft 286 kts 231°
2026-05-08 01:18 -37.33199 145.86449 10219 ft 268 kts 231°
2026-05-08 01:18 -37.34170 145.84579 10231 ft 248 kts 231°
2026-05-08 01:19 -37.35119 145.82777 10244 ft 247 kts 230°
2026-05-08 01:19 -37.36074 145.80975 10244 ft 248 kts 231°
2026-05-08 01:19 -37.37024 145.79171 10232 ft 248 kts 231°
2026-05-08 01:19 -37.37972 145.77361 9992 ft 248 kts 231°
2026-05-08 01:20 -37.38921 145.75552 9495 ft 248 kts 231°
2026-05-08 01:20 -37.39876 145.73730 8985 ft 249 kts 232°
2026-05-08 01:20 -37.40817 145.71926 8593 ft 246 kts 232°
2026-05-08 01:20 -37.41748 145.70146 8133 ft 246 kts 232°
2026-05-08 01:21 -37.42687 145.68353 7702 ft 245 kts 232°
2026-05-08 01:21 -37.43618 145.66571 7345 ft 243 kts 232°
2026-05-08 01:21 -37.44544 145.64791 7252 ft 243 kts 234°
2026-05-08 01:21 -37.45293 145.62865 7247 ft 246 kts 240°
2026-05-08 01:22 -37.46016 145.60922 7004 ft 245 kts 240°
2026-05-08 01:22 -37.46736 145.58977 6566 ft 245 kts 241°
2026-05-08 01:22 -37.47434 145.57025 6138 ft 244 kts 242°
2026-05-08 01:22 -37.48118 145.55073 5716 ft 243 kts 243°
2026-05-08 01:23 -37.48784 145.53150 5352 ft 241 kts 243°
2026-05-08 01:23 -37.49441 145.51229 5245 ft 238 kts 242°
2026-05-08 01:23 -37.50091 145.49319 5249 ft 237 kts 242°
2026-05-08 01:23 -37.50737 145.47416 5251 ft 236 kts 242°
2026-05-08 01:24 -37.51383 145.45512 5254 ft 237 kts 243°
2026-05-08 01:24 -37.52018 145.43631 5247 ft 226 kts 242°
2026-05-08 01:24 -37.52606 145.41871 5239 ft 210 kts 242°
2026-05-08 01:24 -37.53153 145.40239 5233 ft 194 kts 242°
2026-05-08 01:25 -37.53659 145.38734 5233 ft 179 kts 242°
2026-05-08 01:25 -37.54126 145.37350 5253 ft 172 kts 242°
2026-05-08 01:25 -37.54592 145.35973 5254 ft 171 kts 242°
2026-05-08 01:25 -37.55058 145.34595 5251 ft 171 kts 242°
2026-05-08 01:26 -37.55524 145.33218 5254 ft 171 kts 242°
2026-05-08 01:26 -37.55994 145.31831 5251 ft 172 kts 242°
2026-05-08 01:26 -37.56451 145.30473 5281 ft 166 kts 242°
2026-05-08 01:26 -37.56903 145.29129 5258 ft 167 kts 242°
2026-05-08 01:27 -37.57357 145.27784 5249 ft 167 kts 242°
2026-05-08 01:27 -37.57807 145.26446 5249 ft 168 kts 242°
2026-05-08 01:27 -37.58262 145.25091 5256 ft 167 kts 241°
2026-05-08 01:27 -37.58711 145.23748 5255 ft 166 kts 241°
2026-05-08 01:28 -37.59163 145.22403 5256 ft 167 kts 241°
2026-05-08 01:28 -37.59617 145.21052 5015 ft 168 kts 241°
2026-05-08 01:28 -37.60068 145.19709 4686 ft 165 kts 242°
2026-05-08 01:28 -37.60508 145.18391 4361 ft 162 kts 242°
2026-05-08 01:29 -37.60929 145.17126 4245 ft 148 kts 242°
2026-05-08 01:29 -37.61307 145.15983 4253 ft 138 kts 241°
2026-05-08 01:29 -37.61679 145.14875 4260 ft 138 kts 241°
2026-05-08 01:29 -37.62048 145.13777 4252 ft 138 kts 241°
2026-05-08 01:30 -37.62422 145.12663 4268 ft 138 kts 241°
2026-05-08 01:30 -37.62795 145.11551 4250 ft 138 kts 241°
2026-05-08 01:30 -37.63173 145.10425 3968 ft 141 kts 241°
2026-05-08 01:30 -37.63556 145.09281 3668 ft 142 kts 242°
2026-05-08 01:31 -37.63936 145.08138 3424 ft 142 kts 243°
2026-05-08 01:31 -37.64312 145.07006 3282 ft 138 kts 242°
2026-05-08 01:31 -37.64677 145.05911 3258 ft 134 kts 242°
2026-05-08 01:31 -37.65035 145.04840 3265 ft 134 kts 242°
2026-05-08 01:32 -37.65398 145.03753 3259 ft 135 kts 242°
2026-05-08 01:32 -37.65762 145.02662 3263 ft 136 kts 243°
2026-05-08 01:32 -37.66127 145.01566 3258 ft 135 kts 242°
2026-05-08 01:32 -37.66488 145.00482 3254 ft 134 kts 241°
2026-05-08 01:33 -37.66847 144.99389 3260 ft 135 kts 243°
2026-05-08 01:33 -37.66997 144.98195 3267 ft 142 kts 262°
2026-05-08 01:33 -37.66946 144.96940 3265 ft 143 kts 265°
2026-05-08 01:33 -37.66871 144.95700 3039 ft 146 kts 265°
2026-05-08 01:34 -37.66795 144.94407 2615 ft 149 kts 266°
2026-05-08 01:34 -37.66716 144.93098 2222 ft 148 kts 267°
2026-05-08 01:34 -37.66638 144.91839 1916 ft 138 kts 268°
2026-05-08 01:34 -37.66563 144.90660 1647 ft 133 kts 266°
2026-05-08 01:35 -37.66496 144.89489 1228 ft 135 kts 268°
2026-05-08 01:35 -37.66442 144.88311 997 ft 134 kts 266°
2026-05-08 01:35 -37.66381 144.87134 796 ft 134 kts 269°
2026-05-08 01:35 -37.66281 144.86009 581 ft 121 kts 264°
2026-05-08 01:36 -37.66232 144.85049 423 ft 102 kts 266°
2026-05-08 01:36 -37.66180 144.84240 369 ft 79 kts 268°
2026-05-08 01:36 -37.66166 144.83808 395 ft 36 kts 274°
2026-05-08 01:36 -37.66149 144.83471 406 ft 52 kts 274°
2026-05-08 01:37 -37.66141 144.83062 412 ft 37 kts 258°
2026-05-08 01:37 -37.66214 144.82821 413 ft 26 kts 244°
2026-05-08 01:37 -37.66313 144.82685 418 ft 14 kts 192°
2026-05-08 01:37 -37.66396 144.82705 413 ft 11 kts 144°
2026-05-08 01:38 -37.66444 144.82833 410 ft 23 kts 98°
2026-05-08 01:38 -37.66461 144.83076 404 ft 30 kts 95°
2026-05-08 01:38 -37.66478 144.83343 400 ft 30 kts 95°
2026-05-08 01:38 -37.66491 144.83573 394 ft 25 kts 94°
2026-05-08 01:39 -37.66505 144.83779 393 ft 22 kts 93°
2026-05-08 01:39 -37.66513 144.83950 388 ft 18 kts 95°
2026-05-08 01:39 -37.66535 144.84099 381 ft 16 kts 128°
2026-05-08 01:39 -37.66623 144.84159 379 ft 13 kts 168°
2026-05-08 01:40 -37.66702 144.84175 379 ft 10 kts 171°
2026-05-08 01:40 -37.66803 144.84195 378 ft 20 kts 172°
2026-05-08 01:40 -37.66938 144.84220 376 ft 19 kts 172°
2026-05-08 01:40 -37.67091 144.84251 373 ft 26 kts 172°
2026-05-08 01:41 -37.67202 144.84341 371 ft 19 kts 95°
2026-05-08 01:41 -37.67157 144.84450 371 ft 7 kts
2026-05-08 01:41 -37.67133 144.84452 368 ft 9 kts
2026-05-08 01:41 -37.67017 144.84499 367 ft 19 kts 78°
2026-05-08 01:42 -37.67038 144.84567 362 ft 7 kts 170°
2026-05-08 01:42 -37.67064 144.84572 362 ft 0 kts 171°